Change the Weather History Date:

Saturday, August 23, 2014

  Actual Average Record
Temperature  
Mean Temperature 73 °F -  
Max Temperature 78 °F 70 °F 82 °F (1998)
Min Temperature 68 °F 56 °F 50 °F (2010)
Cooling Degree Days 8    
Growing Degree Days 23 (Base 50)    
Moisture  
Dew Point 61 °F    
Average Humidity 71    
Maximum Humidity 81    
Minimum Humidity 54    
Precipitation  
Precipitation 0.00 in - - ()
Sea Level Pressure  
Sea Level Pressure 29.93 in    
Wind  
Wind Speed 5 mph (West)    
Max Wind Speed 10 mph    
Max Gust Speed 17 mph    
Visibility 10 miles    
Events      
Averages and records for this station are not official NWS values.
T = Trace of Precipitation, MM = Missing Value Source: NWS Daily Summary

Daily Weather History Graph

Daily Weather History Graph

Search for Another Location

Airport or City:

Trip Planner

Search our weather history database for the weather conditions in past years. The results will help you decide how hot, cold, wet, or windy it might be!

Date:

Astronomy

Aug. 23, 2014 Rise Set
Actual Time 6:23 AM PDT 7:33 PM PDT
Civil Twilight 5:57 AM PDT 7:59 PM PDT
Nautical Twilight 5:26 AM PDT 8:30 PM PDT
Astronomical Twilight 4:54 AM PDT 9:02 PM PDT
Moon 4:45 AM PDT (8/23) 6:20 PM PDT (8/23)
Length of Visible Light 14h 02m
Length of Day
13h 10m
Waning Crescent, 3% of the Moon is Illuminated
Aug 23
Waning Crescent
Aug 25
New
Sep 2
First Quarter
Sep 8
Full
Sep 15
Last Quarter

Hourly Weather History & Observations

Time (PDT) Temp. Dew Point Humidity Pressure Visibility Wind Dir Wind Speed Gust Speed Precip Events Conditions
12:56 AM 69.1 °F 61.0 °F 75% 29.96 in 10.0 mi Calm Calm - N/A   Overcast
1:56 AM 68.0 °F 61.0 °F 78% 29.95 in 10.0 mi WNW 4.6 mph - N/A   Overcast
2:56 AM 68.0 °F 61.0 °F 78% 29.95 in 10.0 mi WNW 4.6 mph - N/A   Overcast
3:10 AM 68.0 °F 61.0 °F 78% 29.94 in 10.0 mi West 4.6 mph - N/A   Overcast
3:56 AM 69.1 °F 62.1 °F 78% 29.95 in 10.0 mi Calm Calm - N/A   Overcast
4:19 AM 69.1 °F 62.1 °F 78% 29.95 in 9.0 mi West 4.6 mph - N/A   Overcast
4:56 AM 69.1 °F 62.1 °F 78% 29.95 in 10.0 mi WNW 3.5 mph - N/A   Overcast
5:10 AM 68.0 °F 62.1 °F 81% 29.95 in 10.0 mi Calm Calm - N/A   Overcast
5:56 AM 69.1 °F 62.1 °F 78% 29.96 in 10.0 mi West 3.5 mph - N/A   Overcast
6:56 AM 69.1 °F 62.1 °F 78% 29.97 in 9.0 mi WNW 3.5 mph - N/A   Overcast
7:56 AM 70.0 °F 62.1 °F 76% 29.98 in 10.0 mi WNW 4.6 mph - N/A   Overcast
8:56 AM 73.9 °F 61.0 °F 64% 29.98 in 10.0 mi Variable 3.5 mph - N/A   Mostly Cloudy
9:56 AM 73.9 °F 60.1 °F 62% 29.99 in 10.0 mi SSW 5.8 mph - N/A   Mostly Cloudy
10:32 AM 75.9 °F 60.1 °F 58% 29.98 in 10.0 mi West 9.2 mph - N/A   Scattered Clouds
10:56 AM 77.0 °F 61.0 °F 58% 29.98 in 10.0 mi WSW 8.1 mph - N/A   Scattered Clouds
11:56 AM 75.9 °F 61.0 °F 60% 29.97 in 10.0 mi WSW 10.4 mph - N/A   Scattered Clouds
12:56 PM 78.1 °F 60.1 °F 54% 29.96 in 10.0 mi SW 10.4 mph - N/A   Partly Cloudy
1:56 PM 77.0 °F 60.1 °F 56% 29.95 in 10.0 mi SW 10.4 mph - N/A   Partly Cloudy
2:56 PM 77.0 °F 61.0 °F 58% 29.93 in 10.0 mi West 10.4 mph 17.3 mph N/A   Scattered Clouds
3:56 PM 75.9 °F 61.0 °F 60% 29.91 in 10.0 mi WSW 9.2 mph 16.1 mph N/A   Scattered Clouds
4:56 PM 75.0 °F 62.1 °F 64% 29.90 in 10.0 mi WSW 9.2 mph - N/A   Scattered Clouds
5:56 PM 72.0 °F 62.1 °F 71% 29.89 in 10.0 mi West 10.4 mph - N/A   Scattered Clouds
6:51 PM 71.6 °F 60.8 °F 69% 29.88 in 10.0 mi West 6.9 mph - N/A   Mostly Cloudy
6:56 PM 70.0 °F 61.0 °F 73% 29.88 in 10.0 mi West 8.1 mph - N/A   Mostly Cloudy
7:19 PM 69.1 °F 61.0 °F 75% 29.88 in 10.0 mi West 6.9 mph - N/A   Scattered Clouds
7:56 PM 68.0 °F 61.0 °F 78% 29.89 in 10.0 mi West 5.8 mph - N/A   Scattered Clouds
8:56 PM 68.0 °F 61.0 °F 78% 29.90 in 10.0 mi NW 3.5 mph - N/A   Mostly Cloudy
9:56 PM 69.1 °F 61.0 °F 75% 29.90 in 10.0 mi NW 3.5 mph - N/A   Overcast
10:56 PM 69.1 °F 61.0 °F 75% 29.90 in 10.0 mi NW 4.6 mph - N/A   Mostly Cloudy
11:08 PM 69.1 °F 61.0 °F 75% 29.90 in 10.0 mi Variable 3.5 mph - N/A   Overcast
11:56 PM 68.0 °F 60.1 °F 76% 29.90 in 10.0 mi NW 3.5 mph - N/A   Overcast